Date,TemperatureHighF,TemperatureAvgF,TemperatureLowF,DewpointHighF,DewpointAvgF,DewpointLowF,HumidityHigh,HumidityAvg,HumidityLow,PressureMaxIn,PressureMinIn,WindSpeedMaxMPH,WindSpeedAvgMPH,GustSpeedMaxMPH,PrecipitationSumIn
2013-1-1,72.3,61.5,52.8,70.9,58.1,50.5,99,89,81,30.21,30.04,0,-999,0,0.00
2013-1-2,74.8,65.5,57.7,69.3,62.2,55.1,92,89,78,30.07,29.99,0,-999,0,0.00
2013-1-3,73.2,65.5,58.8,68.8,62.7,-6.6,93,91,82,30.17,30.03,0,-999,0,0.15
2013-1-4,61.3,58.3,55.7,58.7,55.9,-6.8,93,92,90,30.28,30.14,0,-999,0,0.02
2013-1-5,71.6,63.3,55.9,71.1,59.8,-8.4,99,88,82,30.30,30.17,0,-999,0,0.00
2013-1-6,75.9,67.8,62.4,71.7,64.7,45.5,93,90,83,30.21,30.06,0,-999,0,0.00
2013-1-7,66.0,62.3,60.0,63.6,59.2,-8.4,93,90,83,30.22,30.11,0,-999,0,0.10
2013-1-8,78.0,68.0,60.4,73.3,65.4,51.3,99,91,83,30.22,30.11,0,-999,0,0.00
2013-1-9,80.0,72.6,67.4,79.0,68.9,-7.1,99,88,79,30.29,30.17,0,-999,0,0.00
2013-1-10,79.3,72.6,67.6,71.8,68.2,-7.1,99,86,76,30.29,30.20,0,-999,0,0.00
2013-1-11,79.5,70.5,64.0,74.1,67.2,61.3,93,89,80,30.27,30.13,0,-999,0,0.00
2013-1-12,78.6,70.0,62.9,77.4,66.0,-7.8,99,88,76,30.19,30.08,0,-999,0,0.00
2013-1-13,78.0,68.7,62.4,75.2,65.7,-7.8,99,90,87,30.17,30.06,0,-999,0,0.00
2013-1-15,71.2,68.0,67.8,68.4,65.0,-7.1,91,90,90,30.08,13.86,0,-999,0,39.59
2013-1-16,78.6,69.0,62.0,76.5,65.1,-4.7,99,88,73,30.12,29.99,0,-999,0,0.00
2013-1-17,69.9,61.8,54.5,67.8,57.8,-7.1,93,87,74,30.15,30.00,0,-999,0,0.02
2013-1-18,61.1,52.5,41.5,56.4,46.7,35.3,90,81,74,30.31,30.14,0,-999,0,0.00
2013-1-19,72.3,63.0,53.7,65.4,57.6,17.0,88,82,75,30.28,30.12,0,-999,0,0.00
2013-1-20,73.2,65.2,59.1,68.1,61.4,56.5,99,88,81,30.18,30.04,0,-999,0,0.00
2013-1-21,73.7,65.3,60.0,66.7,60.3,-7.3,99,84,72,30.11,30.00,0,-999,0,0.00
2013-1-22,65.1,58.3,-2.7,55.2,48.0,-19.6,86,70,46,30.29,30.07,0,-999,0,0.00
2013-1-23,66.5,54.8,-2.7,56.1,43.5,-19.2,99,67,45,30.37,30.26,0,-999,0,0.00
2013-1-24,69.4,55.9,43.5,54.2,47.2,39.6,87,74,53,30.35,30.23,0,-999,0,0.00
2013-1-25,70.8,58.2,48.5,64.2,53.3,45.4,99,84,67,30.32,30.18,0,-999,0,0.00
2013-1-26,71.4,59.0,-2.7,63.6,53.9,-6.6,92,84,65,30.29,30.16,0,-999,0,0.00
2013-1-27,74.8,61.8,50.5,66.6,57.0,48.0,99,84,70,30.31,30.21,0,-999,0,0.00
2013-1-28,77.9,67.2,58.8,70.3,62.8,54.6,99,86,74,30.33,30.21,0,-999,0,0.00
2013-1-29,80.2,70.1,63.1,77.2,66.6,-7.1,99,89,81,30.24,30.09,0,-999,0,0.00
2013-1-30,80.4,71.1,64.9,80.1,67.0,62.2,99,87,78,30.11,29.92,0,-999,0,0.13
2013-1-31,69.6,57.7,47.1,66.2,48.2,-15.6,99,73,42,30.25,29.92,0,-999,0,0.00
2013-2-1,64.7,51.9,-2.7,50.9,41.1,-16.3,85,68,41,30.37,30.23,0,-999,0,0.00
2013-2-2,68.1,54.2,-2.7,55.8,46.2,-8.6,99,75,56,30.32,30.15,0,-999,0,0.00
2013-2-3,68.0,55.0,-2.7,54.7,47.4,-8.4,87,77,57,30.21,30.09,0,-999,0,0.00
2013-2-4,67.8,54.1,42.9,57.3,48.0,-7.3,90,81,59,30.16,30.04,0,-999,0,0.00
2013-2-5,72.1,57.5,44.2,61.9,51.2,40.8,88,80,62,30.10,30.00,0,-999,0,0.00
2013-2-6,75.7,64.9,56.4,68.8,60.2,-10.1,90,85,74,30.12,30.03,0,-999,0,0.00
2013-2-7,79.3,69.0,60.9,78.6,64.8,58.3,99,87,74,30.07,29.89,0,-999,0,0.00
2013-2-8,76.8,67.8,58.8,64.7,61.5,55.5,91,81,60,30.10,29.90,0,-999,0,0.00
2013-2-9,73.7,62.9,54.1,63.5,57.1,51.5,91,82,64,30.20,30.07,0,-999,0,0.00
2013-2-10,78.2,67.2,58.8,71.8,62.1,55.3,99,84,71,30.26,30.13,0,-999,0,0.00
2013-2-11,79.3,68.5,59.9,73.1,64.5,57.3,92,87,75,30.21,30.07,0,-999,0,0.00
2013-2-12,79.8,69.8,60.9,74.2,66.3,58.5,99,89,79,30.11,29.95,0,-999,0,0.00
2013-2-13,81.6,71.9,63.1,74.9,68.1,38.4,92,88,77,30.00,29.86,0,-999,0,0.13
2013-2-14,67.2,61.7,60.0,62.5,59.4,56.6,99,92,85,30.05,29.93,0,-999,0,0.00
2013-2-15,71.2,59.3,55.2,69.1,56.5,-6.6,99,90,84,30.10,29.96,0,-999,0,0.00
2013-2-16,65.8,56.2,50.5,54.1,48.4,36.3,91,76,54,30.14,29.94,0,-999,0,0.00
2013-2-17,53.2,46.3,39.3,37.3,30.0,25.0,77,54,39,30.36,30.14,0,-999,0,0.00
2013-2-18,66.2,50.9,36.5,55.5,43.1,31.6,84,75,62,30.37,30.21,0,-999,0,0.00
2013-2-19,73.9,60.7,49.2,64.0,54.8,33.2,89,82,62,30.22,24.21,0,-999,0,0.00
2013-2-20,74.8,65.3,58.8,67.8,61.1,56.2,92,86,73,30.13,30.01,0,-999,0,0.00
2013-2-21,79.1,67.6,58.6,78.1,64.1,-8.9,99,89,78,30.11,29.98,0,-999,0,0.00
2013-2-22,80.4,70.0,61.1,74.8,66.3,59.1,93,88,77,30.08,29.99,0,-999,0,0.00
2013-2-23,89.6,73.4,66.9,76.0,69.6,64.5,92,88,78,30.02,29.90,0,-999,0,0.00
2013-2-24,78.6,72.8,68.7,74.6,69.9,66.3,93,91,83,29.97,29.88,0,-999,0,0.00
2013-2-25,81.5,73.7,67.6,75.3,70.0,-6.8,93,88,78,29.91,29.78,0,-999,0,0.00
2013-2-26,74.4,70.7,64.2,71.8,67.8,19.0,92,91,88,29.90,29.72,0,-999,0,0.00
2013-2-27,70.5,64.2,58.6,63.7,59.7,54.2,92,85,73,29.99,29.88,0,-999,0,0.00
2013-2-28,69.6,61.4,53.7,58.7,54.8,49.6,99,80,62,30.01,29.91,0,-999,0,0.00
2013-3-1,62.6,55.2,-2.7,54.9,47.0,-13.8,99,74,57,30.04,29.92,0,-999,0,0.00
2013-3-2,61.5,52.0,-2.7,50.4,41.7,-9.8,99,68,49,30.09,29.99,0,-999,0,0.00
2013-3-4,52.3,52.2,52.1,45.7,45.6,45.5,78,78,78,30.17,30.16,0,-999,0,0.00
2013-3-18,73.4,71.1,67.8,70.3,68.1,-7.1,91,90,88,30.03,29.90,0,-999,0,0.00
2013-3-19,81.6,70.5,62.6,74.2,66.0,-17.3,92,86,71,30.02,29.89,0,-999,0,0.00
2013-3-20,72.1,66.8,60.9,70.9,62.9,58.0,99,88,76,29.98,29.81,0,-999,0,0.00
2013-3-21,67.8,59.0,50.0,60.1,52.5,-12.8,99,80,60,30.01,29.88,0,-999,0,0.00
2013-3-22,73.0,59.4,45.8,69.2,55.9,-7.6,99,88,78,30.02,29.89,0,-999,0,0.00
2013-3-23,81.1,71.0,-2.7,76.5,67.4,-6.8,91,89,82,29.98,29.80,0,-999,0,0.00
2013-3-24,78.6,73.8,70.1,73.7,70.1,66.6,91,88,84,29.84,29.65,0,-999,0,0.00
2013-3-25,71.2,62.9,54.6,66.8,51.5,-12.5,99,68,42,30.06,29.75,0,-999,0,0.00
2013-3-26,61.1,52.7,46.9,54.7,40.0,32.6,99,63,46,30.20,30.05,0,-999,0,0.00
2013-3-30,77.5,68.4,59.1,62.1,57.9,53.3,85,70,54,30.26,30.13,0,-999,0,0.00
2013-3-31,76.4,65.3,55.2,68.0,59.5,52.0,89,82,67,30.18,30.01,0,-999,0,0.00
2013-4-1,78.9,70.6,63.5,71.1,65.2,60.0,99,84,69,30.04,29.96,0,-999,0,0.00
2013-4-2,82.0,70.8,61.3,71.3,64.6,58.7,91,81,63,30.10,30.00,0,-999,0,0.00
2013-4-3,82.9,72.0,64.0,78.6,67.0,60.6,99,84,72,30.08,29.94,0,-999,0,0.00
2013-4-4,74.1,68.7,66.2,67.4,65.5,-7.3,91,90,87,30.07,29.87,0,-999,0,0.00
2013-4-5,73.2,66.5,60.9,69.6,61.1,-7.3,99,83,63,29.99,29.82,0,-999,0,0.00
2013-4-6,76.6,65.7,57.0,66.1,58.7,52.2,99,78,65,30.11,29.99,0,-999,0,0.00
2013-4-7,79.3,69.9,60.6,77.0,63.7,57.6,99,81,64,30.16,30.04,0,-999,0,0.00
2013-4-8,83.4,72.9,63.3,72.7,66.2,60.0,91,80,59,30.14,30.03,0,-999,0,0.00
2013-4-9,82.2,72.9,-2.7,74.7,67.5,-6.8,91,84,75,30.16,30.06,0,-999,0,0.00
2013-4-10,86.0,74.2,63.5,76.4,67.7,-9.8,99,80,68,30.12,29.95,0,-999,0,0.00
2013-4-11,87.2,76.6,70.8,78.0,71.4,66.4,90,84,73,30.00,29.82,0,-999,0,0.00
2013-4-12,85.2,75.8,72.8,78.3,71.6,69.0,91,87,82,29.92,29.80,0,-999,0,0.00
2013-4-13,84.0,75.5,69.4,76.2,69.8,66.0,92,83,69,29.98,29.88,0,-999,0,0.00
2013-4-14,85.6,75.3,-2.7,78.8,70.3,-6.8,90,85,70,30.01,29.84,0,-999,0,0.00
2013-4-15,89.2,76.5,67.6,86.7,70.6,63.0,99,82,62,30.07,29.93,0,-999,0,0.00
2013-4-16,89.2,78.7,70.3,77.8,72.0,67.0,99,81,62,30.14,30.03,0,-999,0,0.00
2013-4-17,86.1,76.5,67.4,75.5,69.1,27.9,90,78,63,30.14,30.01,0,-999,0,0.00
2013-4-18,87.0,76.9,67.8,81.3,71.0,-8.9,99,82,72,30.05,29.93,0,-999,0,0.00
2013-4-19,76.1,73.3,71.7,70.6,69.0,67.6,88,86,83,30.02,29.96,0,-999,0,0.00
2013-4-20,72.3,66.8,62.2,68.2,63.4,59.0,90,89,86,30.15,30.01,0,-999,0,0.00
2013-4-21,81.3,69.1,60.6,77.6,65.9,58.0,93,90,82,30.14,30.01,0,-999,0,0.00
2013-4-22,78.9,71.2,66.9,72.1,66.8,62.5,92,86,72,30.08,29.97,0,-999,0,0.00
2013-4-23,83.3,72.9,65.3,71.3,65.4,62.0,89,78,59,30.11,30.01,0,-999,0,0.00
2013-4-24,84.5,72.9,62.4,73.9,66.2,59.7,92,80,62,30.15,30.05,0,-999,0,0.00
2013-4-25,84.0,74.3,64.2,70.0,65.4,60.3,89,75,55,30.21,30.09,0,-999,0,0.00
2013-4-26,86.7,76.0,64.9,76.4,68.1,60.5,90,77,61,30.24,30.13,0,-999,0,0.00
2013-4-27,84.0,76.1,68.5,72.1,67.3,63.0,89,75,62,30.22,30.08,0,-999,0,0.00
2013-4-28,85.8,76.0,66.0,75.6,69.2,62.8,91,80,69,30.13,29.95,0,-999,0,0.00
2013-4-29,85.1,76.4,69.0,77.3,70.1,16.6,90,81,71,30.03,29.90,0,-999,0,0.00
2013-4-30,85.4,74.2,66.0,75.3,68.9,28.9,91,84,67,30.04,29.89,0,-999,0,0.00
2013-5-1,73.9,69.9,67.4,70.5,66.6,64.4,90,89,89,30.01,29.92,0,-999,0,5.32
2013-5-2,76.8,70.6,65.6,73.2,67.3,62.6,90,89,85,29.98,29.81,0,-999,0,0.00
2013-5-3,80.2,71.4,67.1,71.9,67.1,63.9,91,86,70,29.84,29.71,0,-999,0,0.00
2013-5-4,79.7,72.7,67.6,72.4,67.2,64.4,92,83,72,29.81,29.68,0,-999,0,0.00
2013-5-5,75.3,69.0,63.5,66.1,59.2,53.6,90,72,50,29.95,29.79,0,-999,0,0.00
2013-5-6,74.8,68.0,62.6,63.5,60.5,57.1,90,78,62,30.02,29.90,0,-999,0,0.00
2013-5-7,77.3,67.6,58.8,66.8,60.3,53.7,91,78,63,30.06,29.98,0,-999,0,0.00
2013-5-8,79.1,69.9,60.4,69.2,62.2,56.3,90,77,64,30.14,30.03,0,-999,0,0.00
2013-5-9,84.5,72.4,61.3,73.8,64.4,0.0,90,77,58,30.16,30.06,0,-999,0,0.00
2013-5-10,87.8,76.3,66.2,77.2,69.0,60.2,90,79,60,30.15,29.99,0,-999,0,0.00
2013-5-11,86.7,79.3,73.2,77.9,72.2,66.6,88,79,67,30.07,29.99,0,-999,0,0.00
2013-5-12,85.2,76.9,70.5,74.3,69.1,65.1,91,77,63,30.05,29.94,0,-999,0,0.00
2013-5-13,81.6,73.6,66.0,67.6,62.6,52.9,91,70,44,30.13,30.01,0,-999,0,0.00
2013-5-14,81.6,70.4,57.7,64.9,57.4,31.0,82,65,43,30.21,30.10,0,-999,0,0.00
2013-5-15,84.3,72.2,60.9,73.9,63.7,55.9,88,75,56,30.22,30.06,0,-999,0,0.00
2013-5-16,85.1,74.1,63.6,70.4,62.9,59.0,87,70,47,30.13,29.99,0,-999,0,0.00
2013-5-17,86.9,76.6,66.2,76.1,67.8,60.0,88,75,61,30.10,30.01,0,-999,0,0.00
2013-5-18,88.7,78.5,69.9,72.7,67.4,22.8,87,70,13,30.11,30.00,0,-999,0,0.00
2013-5-19,87.9,78.9,69.2,70.7,67.2,63.7,87,69,52,30.10,29.97,0,-999,0,0.00
2013-5-20,90.1,77.6,71.4,73.2,69.1,63.8,86,76,54,30.07,29.95,0,-999,0,0.00
2013-5-21,84.9,73.8,67.8,72.8,67.9,63.6,90,82,63,30.04,29.93,0,-999,0,0.00
2013-5-22,86.7,76.1,69.4,74.1,69.2,66.0,90,80,58,29.97,29.88,0,-999,0,0.00
2013-5-23,87.4,78.3,70.8,75.2,70.6,66.8,91,78,65,30.01,29.91,0,-999,0,0.00
2013-5-24,90.5,80.3,71.2,78.6,70.7,66.0,90,74,46,30.08,29.97,0,-999,0,0.00
2013-5-25,88.3,79.2,71.4,69.1,65.9,61.6,85,65,46,30.17,30.05,0,-999,0,0.00
2013-5-26,84.5,74.1,65.1,62.7,60.6,57.4,83,64,41,30.21,30.12,0,-999,0,0.00
2013-6-2,86.5,81.9,77.1,83.0,77.9,72.9,92,88,77,29.97,29.88,0,-999,0,0.00
2013-6-3,84.7,77.6,74.4,77.8,73.2,70.6,90,86,76,30.01,29.90,0,-999,0,0.00
2013-6-4,83.4,76.8,73.7,76.9,72.4,70.3,90,86,76,30.02,29.94,0,-999,0,0.00
2013-6-5,81.1,75.2,73.2,76.2,71.7,22.3,90,89,84,30.02,29.93,0,-999,0,0.00
2013-6-7,84.7,80.6,76.6,74.7,73.0,71.4,84,78,71,29.96,29.90,0,-999,0,0.00
2013-6-8,86.7,77.5,73.9,78.0,72.5,54.1,89,85,74,30.11,29.96,0,-999,0,0.00
2013-6-9,90.8,78.6,72.1,78.7,73.3,69.0,91,84,66,30.10,30.00,0,-999,0,0.00
2013-6-10,91.7,79.4,73.5,82.0,73.7,69.3,90,83,64,30.10,30.00,0,-999,0,0.00
2013-6-11,88.8,78.4,74.4,78.9,73.3,70.3,90,85,67,30.09,30.04,0,-999,0,0.00